Location: Sangrey
(48.2845°N, 109.8206°W)
Time: 23:07:35
(UTC+00:00)

Envisat - Pass Details

Date: 29 January 2022
Orbit: 764 x 765 km, 98.2° (Epoch: 21 May)

Event Time Altitude Azimuth Distance (km) Brightness Sun altitude
Rises 12:25:08 0° 13° (NNE) 3,243 6.4 -24.3°
Reaches altitude 10° 12:27:27 10° 13° (NNE) 2,312 5.6 -24.0°
Maximum altitude 12:32:33 86° 287° (WNW) 774 2.9 -23.1°
Drops below altitude 10° 12:37:38 10° 197° (SSW) 2,297 5.3 -22.3°
Sets 12:39:55 0° 197° (SSW) 3,219 6.1 -21.9°
